Location: Hackbridge
(51.3833°N, 0.1500°W)
Time: 12:02:21
(UTC+00:00)

Cosmos 1605 Rocket - Pass Details

Date: 13 October 2019
Orbit: 944 x 1006 km, 82.9° (Epoch: 11 November)

Event Time Altitude Azimuth Distance (km) Brightness Sun altitude
Rises 18:52:56 0° 350° (N) 3,701 7.3 -16.4°
Reaches altitude 10° 18:55:29 10° 351° (N) 2,740 6.6 -16.8°
Maximum altitude 19:01:46 81° 79° (E) 986 3.9 -17.8°
Drops below altitude 10° 19:07:55 10° 167° (SSE) 2,680 6.1 -18.7°
Sets 19:10:23 0° 169° (S) 3,615 6.8 -19.1°
